lat,lon,time
47.5060127345933,-122.202393144576,2020-07-08 09:04:01
47.5073929229515,-122.205822271792,2020-07-08 09:09:00
47.5089225784602,-122.208359964273,2020-07-08 09:14:00
47.5105941912777,-122.211505196734,2020-07-08 09:19:01
47.5123911972929,-122.214635561951,2020-07-08 09:24:28
47.5130698975811,-122.215966172708,2020-07-08 09:29:00
47.5146727636403,-122.218313563352,2020-07-08 09:34:19
47.5158924262888,-122.220275361465,2020-07-08 09:40:19
47.5168770901396,-122.221448400867,2020-07-08 09:44:15
47.520508580451,-122.228650582398,2020-07-08 09:49:03
47.5216153289822,-122.229816409967,2020-07-08 09:54:01
47.5242032800711,-122.233422765447,2020-07-08 09:59:05
47.5256803093207,-122.235891046601,2020-07-08 10:04:00
47.5271913242747,-122.237341683482,2020-07-08 10:10:42
47.5305222452418,-122.24010006161,2020-07-08 10:14:08
47.5316385478901,-122.241388166473,2020-07-08 10:19:09
47.5325077619743,-122.242416988581,2020-07-08 10:24:23
47.5350240203133,-122.24386163029,2020-07-08 10:30:29
47.5395357517541,-122.245545174687,2020-07-08 10:34:24
47.5414854217543,-122.245798580853,2020-07-08 10:40:11
47.5420808791964,-122.245975713687,2020-07-08 10:46:15
47.5427580292281,-122.245927283669,2020-07-08 10:51:32
47.5488740664108,-122.245946369168,2020-07-08 10:54:58
47.5499013123498,-122.245702087776,2020-07-08 10:59:54
47.5504360439206,-122.245496317304,2020-07-08 11:04:22
47.5542587528745,-122.246057186037,2020-07-08 11:10:20
47.5545950376466,-122.246150294554,2020-07-08 11:15:22
47.5559496577374,-122.246747960579,2020-07-08 11:21:25
47.5611044532068,-122.248797179999,2020-07-08 11:24:09
47.5620265444409,-122.249314401195,2020-07-08 11:30:20
47.5631798037463,-122.249892153094,2020-07-08 11:34:09
47.5668465408414,-122.251679874939,2020-07-08 11:39:00
47.5677848698292,-122.252151108378,2020-07-08 11:44:08
47.5717091679187,-122.254185943074,2020-07-08 11:50:00
47.5718211071287,-122.254658075021,2020-07-08 11:54:29
47.5763490989009,-122.255916549178,2020-07-08 11:59:00
47.5780076331273,-122.256447030315,2020-07-08 12:04:01
47.5793813912418,-122.257068683286,2020-07-08 12:10:19
47.579909972443,-122.25727653314,2020-07-08 12:15:21
47.5854721205925,-122.256308455147,2020-07-08 12:20:05
47.5857647626072,-122.256524053812,2020-07-08 12:25:15
47.5911231616682,-122.255225474372,2020-07-08 12:30:01
47.5918789800166,-122.25529347223,2020-07-08 12:34:34
47.5944578360053,-122.252066180786,2020-07-08 12:39:41
47.5952627112218,-122.25073339693,2020-07-08 12:44:01
47.5959825534099,-122.247379089923,2020-07-08 12:49:25
47.5960131916794,-122.243294124816,2020-07-08 12:54:09
47.5960282068145,-122.240842043553,2020-07-08 12:59:22
47.5962520696618,-122.238053781516,2020-07-08 13:04:15
47.5964594627365,-122.234226316246,2020-07-08 13:09:01
47.5961655049539,-122.23107556869,2020-07-08 13:14:27
47.5958236101156,-122.228961520812,2020-07-08 13:19:30
47.5946974125291,-122.226461934659,2020-07-08 13:24:00
47.5921729471968,-122.223700796658,2020-07-08 13:29:00
47.5903884152177,-122.221314576654,2020-07-08 13:34:04
47.5888843719697,-122.219526160405,2020-07-08 13:39:03
47.5870463848232,-122.217207135595,2020-07-08 13:45:05
47.5865366291445,-122.216880095433,2020-07-08 13:49:21
47.5852468560792,-122.215719691869,2020-07-08 13:55:37
47.5848130926001,-122.215315043606,2020-07-08 13:59:20
47.5802115313501,-122.205255592284,2020-07-08 14:04:13
47.5720025847665,-122.20223858253,2020-07-08 14:24:00
47.5707101580309,-122.202447450365,2020-07-08 14:29:30
47.5677580397356,-122.203290514972,2020-07-08 14:34:00
47.5655763233861,-122.20352184352,2020-07-08 14:40:04
47.5639746424022,-122.203881720815,2020-07-08 14:44:06
47.5616689379641,-122.204325132335,2020-07-08 14:49:19
47.5589747730448,-122.204933838923,2020-07-08 14:54:05
47.5565642689221,-122.205222681351,2020-07-08 14:59:00
47.5544082916503,-122.205596645009,2020-07-08 15:04:03
47.5526572004151,-122.205844567481,2020-07-08 15:09:45
47.5499083888638,-122.205955744735,2020-07-08 15:14:03
47.5484073063269,-122.206365222178,2020-07-08 15:19:06
47.5468692467536,-122.206898286857,2020-07-08 15:24:08
47.5440265132509,-122.207275054352,2020-07-08 15:29:00
47.5416855476879,-122.207868527198,2020-07-08 15:34:02
47.5400076502069,-122.208451418043,2020-07-08 15:39:00
47.5365603189534,-122.210617394679,2020-07-08 15:44:00
47.5346070887762,-122.212357797454,2020-07-08 15:49:03
47.5327707835184,-122.214236738267,2020-07-08 15:54:47
47.5316942876041,-122.215478703806,2020-07-08 16:00:35
47.5294098578353,-122.217900128707,2020-07-08 16:04:20
47.5272685885503,-122.22058587619,2020-07-08 16:09:02
47.5257993397776,-122.222623128511,2020-07-08 16:14:00
47.5242025933907,-122.225485714061,2020-07-08 16:19:02
47.5246775118303,-122.228799903272,2020-07-08 16:24:00
47.5258984090523,-122.23155544764,2020-07-08 16:29:05
47.5271760813519,-122.234244563178,2020-07-08 16:34:00
47.5287687162615,-122.237051388447,2020-07-08 16:40:06
47.5297783824612,-122.238337746219,2020-07-08 16:44:22
47.5330037042585,-122.242509830981,2020-07-08 16:49:11
47.534819785335,-122.244001445816,2020-07-08 16:54:30
47.5358617995564,-122.244633964843,2020-07-08 16:59:54
47.5374653936099,-122.245087311487,2020-07-08 17:04:23
47.5415971136629,-122.244897041807,2020-07-08 17:09:32
47.5430221618831,-122.245009000198,2020-07-08 17:14:39
47.5440771922022,-122.245030540687,2020-07-08 17:19:04
47.547127480286,-122.244981876678,2020-07-08 17:24:31
47.5490086043665,-122.245491164399,2020-07-08 17:29:24
47.5519580289653,-122.245768037288,2020-07-08 17:34:46
47.5535809122639,-122.246164845003,2020-07-08 17:40:07
47.5570717047118,-122.246636091617,2020-07-08 17:44:00
47.5586897997684,-122.247142506228,2020-07-08 17:49:13
47.5612321058354,-122.248458640857,2020-07-08 17:54:28
47.5634539445708,-122.249871335127,2020-07-08 17:59:00
47.5649504361388,-122.250638002178,2020-07-08 18:04:00
47.5674105386366,-122.251113447058,2020-07-08 18:09:01
47.5684947883752,-122.251491920133,2020-07-08 18:14:07
47.5723474608055,-122.252336697401,2020-07-08 18:19:00
47.5746435767106,-122.252729828772,2020-07-08 18:24:10
47.5770134233729,-122.253320132911,2020-07-08 18:29:02
47.5783447124372,-122.253776240457,2020-07-08 18:34:44
47.5793776539734,-122.254035954534,2020-07-08 18:39:36
47.5813507083171,-122.254450793093,2020-07-08 18:44:03
47.5841580363068,-122.254868966561,2020-07-08 18:50:20
47.5881324307099,-122.255175517219,2020-07-08 18:54:00
47.5898346606885,-122.254801064612,2020-07-08 18:59:36
47.5913120213488,-122.254498622513,2020-07-08 19:04:00
47.5932904724899,-122.253577182287,2020-07-08 19:09:37
47.5972841153786,-122.252685928048,2020-07-08 19:14:01
47.6000441400173,-122.252001778395,2020-07-08 19:19:10
47.6022702731078,-122.251467560215,2020-07-08 19:25:25
47.6045774798079,-122.250959856076,2020-07-08 19:29:02
47.6067703689164,-122.250462350536,2020-07-08 19:34:00
47.6090144790353,-122.250004258782,2020-07-08 19:39:03
47.610852419891,-122.249465094489,2020-07-08 19:44:27
47.6134775540223,-122.248715443487,2020-07-08 19:49:41
47.6150429734305,-122.248223232253,2020-07-08 19:54:03
47.6179171792642,-122.247614649632,2020-07-08 19:59:00
47.6197956660738,-122.247210306637,2020-07-08 20:04:01
47.6220222146423,-122.246842317754,2020-07-08 20:09:00
47.6241407183791,-122.246272771792,2020-07-08 20:14:00
47.6266826703932,-122.245784094707,2020-07-08 20:19:02
47.6291297171743,-122.245320703087,2020-07-08 20:24:01
47.6315417611604,-122.244734371731,2020-07-08 20:29:02
47.633611336894,-122.244163537694,2020-07-08 20:34:01
47.6359484598366,-122.24345744631,2020-07-08 20:39:00
47.6382445937201,-122.243018422783,2020-07-08 20:44:00
47.6405796285844,-122.243140089304,2020-07-08 20:49:02
47.6430971888617,-122.243546652277,2020-07-08 20:54:00
47.6456492290458,-122.243456526982,2020-07-08 20:59:01
47.647951319292,-122.243260280353,2020-07-08 21:04:00
47.6499086859777,-122.243361236401,2020-07-08 21:09:00
47.6519596559158,-122.243266441601,2020-07-08 21:14:02
47.6540620974052,-122.243201813602,2020-07-08 21:19:00
47.6560574877729,-122.243102333005,2020-07-08 21:24:00
47.6581628399844,-122.24324918461,2020-07-08 21:29:01
47.660033777076,-122.243286869632,2020-07-08 21:34:01
47.662200004529,-122.24326000277,2020-07-08 21:39:01
47.6644036641014,-122.243327244963,2020-07-08 21:44:01
47.6664487554009,-122.243302145757,2020-07-08 21:49:01
47.6686614509737,-122.242919914888,2020-07-08 21:54:01
47.6710576707692,-122.241973582135,2020-07-08 21:59:00
47.6728552691764,-122.242319288813,2020-07-08 22:04:00
47.6753388535796,-122.242593911635,2020-07-08 22:09:02
47.6777301694454,-122.243006849491,2020-07-08 22:14:01
47.6800470201227,-122.243542528408,2020-07-08 22:19:02
47.6824170448254,-122.244295679218,2020-07-08 22:24:00
47.6845925742183,-122.245251776606,2020-07-08 22:29:01
47.6867788774743,-122.246331640702,2020-07-08 22:34:01
47.6888886663016,-122.24732886887,2020-07-08 22:39:01
47.690913676387,-122.248317566467,2020-07-08 22:44:00
47.6930379642176,-122.24951248594,2020-07-08 22:49:00
47.6950078628196,-122.25064834959,2020-07-08 22:54:02
47.6969560113363,-122.251787537187,2020-07-08 22:59:02
47.6986550793328,-122.252828217266,2020-07-08 23:04:00
47.7007778015733,-122.254117690998,2020-07-08 23:09:00
47.7028561201181,-122.25524782605,2020-07-08 23:14:00
47.7049776986946,-122.256316343751,2020-07-08 23:19:00
47.7071433319484,-122.25731075592,2020-07-08 23:24:00
47.7093788093567,-122.258197158665,2020-07-08 23:29:00
47.7111688964569,-122.258948120806,2020-07-08 23:34:09
47.713453006192,-122.259736745536,2020-07-08 23:39:03
47.715656893013,-122.260489315879,2020-07-08 23:44:01
47.7178800888305,-122.261360971194,2020-07-08 23:49:02
47.7201441268377,-122.261860300741,2020-07-08 23:54:00
47.7223670055362,-122.262650823891,2020-07-08 23:59:00
47.7244368578645,-122.263414549275,2020-07-09 00:04:00
47.7266603312964,-122.264421678805,2020-07-09 00:09:00
47.7288281835408,-122.265144900019,2020-07-09 00:14:00
47.7311308032173,-122.266017009182,2020-07-09 00:19:01
47.7334724770321,-122.266882193903,2020-07-09 00:24:01
47.7357045107595,-122.267410009366,2020-07-09 00:29:01
47.7373566269849,-122.268035806993,2020-07-09 00:34:01
47.7394006538837,-122.26821282703,2020-07-09 00:39:00
47.7417629195867,-122.267448895264,2020-07-09 00:44:01
47.743886728594,-122.26689821726,2020-07-09 00:49:01
47.7459079577464,-122.266580090631,2020-07-09 00:54:26
47.7475870248886,-122.266283652969,2020-07-09 00:59:02
47.7497695730445,-122.26547291068,2020-07-09 01:04:00
47.7517731395505,-122.264484576847,2020-07-09 01:09:10
47.7536721938249,-122.264796092246,2020-07-09 01:14:01
47.7538462629957,-122.265265262993,2020-07-09 01:19:11
47.7538739465706,-122.265098353236,2020-07-09 01:24:12
